Starlink 6350

operational
NORAD ID: 57226 Int'l Des: 2023-094 Owner: SPXS Country: US Constellation: starlink
LEOCIRCULAR

Starlink 6350について

説明を読み込み中...

リアルタイム位置

3D地球を読み込み中...

次回通過

高度履歴

Altitude vs Time

uPlot chart will show altitude changes over time

軌道要素

1 57226U 23094J 25351.61826994 .00001296 00000-0 11096-3 0 9999
2 57226 43.0027 116.3355 0001072 278.2177 81.8544 15.02534163134770
Epoch: Dec 17, 2025 • Age: 8 hours

現在のステータス

高度 562.9 km
速度 7.59 km/s
衛星直下点 42.88°N, 136.93°E
打ち上げ日 Jul 7, 2023
運用期間 2.4 years
タイプ internet

技術仕様

分類 Payload
質量 305.00 kg
乾燥質量 290.00 kg
総質量 305.00 kg
長さ 0.20 m
直径 2.80 m
スパン 9.00 m
形状 Box + pan
製造者 SPXS
バスタイプ Starlink
フェーズステータス In Orbit
所有者/国 SPXS/US

大規模コンステレーション

Loading constellations...